Wind_Speed
49 49 49 49 49 49 51 50 49 45 42 38 36 34 34 33 32 32 31 31 31 32 32 32 32 32 32 32 32 32 32 32 33 33 33 33 34 34 34 35 35 36 36 37
48 48 49 50 49 48 49 49 48 46 43 38 37 36 36 35 34 33 32 32 32 32 32 31 31 31 31 31 32 32 32 33 33 33 33 33 34 34 34 35 35 36 37 38
46 48 50 52 48 47 47 46 46 46 41 40 39 37 36 35 35 34 33 32 32 32 31 31 31 31 31 31 31 31 32 32 32 33 33 33 33 34 34 34 35 36 37 38
46 47 50 46 45 46 45 45 45 44 41 40 39 38 37 37 37 36 35 33 33 32 31 31 31 31 31 31 31 31 32 32 32 32 32 33 33 33 33 34 35 36 37 38
45 47 47 45 44 44 44 44 43 42 41 40 40 41 40 38 38 37 35 34 34 33 32 32 31 31 31 31 31 31 32 32 32 32 32 32 33 33 34 35 36 37 38 39
46 45 46 42 41 41 43 43 39 39 39 39 41 42 38 37 37 36 36 35 34 33 33 32 31 31 31 31 31 31 32 32 32 32 32 33 33 34 35 35 36 37 38 39
46 44 44 41 39 40 41 37 36 37 37 39 40 39 36 37 37 36 36 35 34 33 32 32 32 32 32 31 31 32 32 32 32 32 33 33 34 35 35 36 37 38 39 40
46 45 41 39 40 38 35 34 35 35 36 38 38 38 37 37 36 35 35 34 33 32 32 32 32 32 32 32 32 32 32 32 32 33 33 34 34 35 36 37 38 38 39 40
43 41 39 39 38 37 36 35 36 36 35 36 37 37 37 37 36 34 34 34 33 32 32 32 32 32 32 32 32 32 32 32 33 33 34 34 35 36 36 37 38 39 40 41
42 41 40 37 36 35 36 36 37 37 36 35 35 35 35 35 35 34 34 33 32 32 32 32 31 32 32 32 32 33 33 33 33 34 34 35 36 36 37 37 38 40 41 42
44 42 40 38 35 34 34 35 36 37 36 34 33 33 33 33 33 33 33 32 32 31 31 31 32 32 32 32 32 33 33 33 33 34 35 35 36 36 37 38 39 40 41 43
43 42 41 38 36 35 35 35 35 35 35 35 33 32 32 32 32 32 31 31 31 30 30 31 31 32 32 32 32 33 33 33 34 34 35 36 36 37 38 39 40 41 42 44
42 42 41 39 37 35 35 35 35 34 34 34 33 33 32 32 31 31 31 31 31 31 30 31 31 32 32 32 33 33 34 34 35 35 36 36 37 38 39 40 41 42 43 45
42 43 42 41 39 35 34 34 34 34 33 33 33 33 32 31 31 31 31 31 31 31 31 31 32 32 32 32 33 33 34 34 35 36 36 37 38 38 39 41 42 43 45 46
41 42 40 40 38 35 34 34 33 33 33 32 32 32 32 32 31 31 31 31 31 31 31 31 31 32 32 32 33 34 34 35 35 36 37 37 38 39 40 41 43 44 45 47
40 42 41 38 36 34 34 34 33 32 31 31 32 32 33 32 31 31 31 31 31 30 31 31 31 32 32 33 33 34 34 35 35 36 37 38 38 39 41 42 43 44 46 47
38 39 39 37 36 34 33 33 33 32 31 31 32 33 33 32 31 31 30 30 30 30 30 30 30 31 32 32 33 34 34 35 35 36 37 38 39 40 41 42 44 45 46 48
37 37 39 38 37 36 34 33 33 33 32 32 32 33 33 32 31 31 31 30 30 29 29 30 30 31 32 33 34 34 34 35 36 37 38 39 40 41 42 43 45 46 48 50
36 37 38 38 37 36 35 33 32 31 31 31 31 32 32 32 31 31 30 30 30 30 30 31 31 32 33 33 33 34 34 35 36 37 38 39 40 42 43 44 46 48 50 52
35 37 37 37 35 34 34 34 32 31 31 30 30 31 32 32 32 31 31 31 31 31 31 32 33 33 33 33 34 34 35 36 37 38 39 40 42 43 44 46 48 50 51 53
34 35 35 35 33 33 34 33 32 31 31 31 31 30 31 32 32 31 31 31 31 32 32 33 33 33 33 34 34 35 35 36 37 39 40 41 43 44 46 48 50 51 53 54
33 34 34 34 33 32 32 32 31 30 31 31 31 31 31 31 31 31 31 32 33 33 33 33 33 33 34 34 35 35 36 37 39 40 41 43 44 46 48 50 51 52 53 54
33 33 34 34 33 32 31 30 29 30 30 30 30 30 30 30 31 31 31 32 33 33 33 33 34 34 34 35 36 36 37 39 40 41 43 45 46 48 49 51 52 53 54 55
32 32 33 33 33 33 31 30 29 29 30 30 30 30 30 31 31 31 32 32 33 33 33 33 34 35 35 36 37 38 39 40 42 44 45 47 48 49 51 51 52 53 54 54
29 31 32 33 34 33 31 30 30 30 30 30 30 30 30 30 31 31 32 32 32 32 32 33 33 34 35 36 38 39 41 42 44 46 47 49 50 51 51 52 53 54 54 53
29 30 30 31 31 31 31 30 29 28 29 30 30 29 30 30 30 31 31 31 32 32 33 33 34 35 37 38 39 41 42 44 46 48 49 50 50 51 52 53 54 54 53 52
28 27 27 28 28 28 28 28 28 28 28 29 30 30 30 30 30 30 31 32 33 33 34 35 36 37 39 40 42 43 45 46 48 49 49 50 51 51 53 53 53 52 52 52
Wind_Direction
227 228 229 230 230 231 232 233 236 236 238 239 241 241 242 243 245 248 250 252 254 255 258 260 262 265 267 270 272 275 277 279 281 283 284 285 286 287 288 289 289 290 291 292
228 229 229 229 229 230 230 232 235 235 236 236 238 239 241 242 244 247 249 252 254 255 257 260 262 265 268 270 273 275 277 279 281 283 284 285 286 287 288 289 290 290 291 292
229 229 232 231 228 230 230 231 234 235 234 235 237 238 240 241 242 245 248 251 253 255 257 260 262 265 267 269 272 275 278 280 282 283 284 285 286 287 288 289 290 291 292 293
230 230 232 231 230 232 233 233 234 235 234 235 236 236 238 240 242 244 247 250 253 255 257 259 261 264 267 269 272 275 278 280 281 283 284 286 287 288 289 290 291 292 293 294
230 231 231 229 229 231 233 233 233 234 234 234 234 234 236 239 241 243 246 250 252 253 255 258 260 263 266 269 273 276 278 280 281 283 285 286 286 288 290 291 292 293 294 295
227 230 229 228 230 231 233 233 230 232 233 233 233 235 236 239 241 244 246 249 251 253 255 258 260 263 266 269 273 276 278 280 281 283 284 285 287 289 290 292 293 294 295 295
226 229 229 227 227 228 230 229 229 231 232 233 234 236 235 237 240 242 245 248 251 253 255 257 260 263 266 270 273 275 277 279 281 283 284 286 288 290 291 292 294 295 296 296
225 227 225 224 225 228 231 229 228 230 232 233 234 234 234 236 239 242 245 248 250 253 255 257 260 264 266 269 272 275 277 279 281 283 285 287 289 291 292 293 294 295 296 297
225 225 225 224 224 225 227 227 228 230 232 233 233 233 235 237 239 242 245 248 250 252 254 257 260 263 266 269 272 275 277 279 281 282 285 288 290 291 293 294 295 296 297 299
220 221 222 223 223 224 227 228 228 230 231 232 232 234 236 238 240 242 245 248 250 253 255 258 262 264 267 270 273 275 277 279 280 283 286 289 291 292 294 295 296 297 299 300
220 220 220 221 223 226 229 229 229 230 231 232 232 233 235 237 239 241 244 247 251 255 258 260 263 265 268 271 274 276 278 280 282 285 287 289 291 292 294 295 297 299 300 301
222 221 222 221 223 227 228 227 229 231 232 233 233 232 234 237 239 241 244 248 251 255 259 261 263 266 270 273 275 277 278 280 283 286 288 289 291 293 294 296 298 300 301 303
220 221 221 220 222 226 227 227 229 230 231 232 233 234 235 238 240 243 246 249 252 256 259 262 265 268 271 274 275 277 279 281 283 286 288 290 292 293 294 296 299 301 302 304
222 222 222 222 224 227 226 225 227 229 231 232 233 235 237 239 242 244 247 250 253 256 259 263 266 268 271 273 275 277 279 282 284 286 288 290 292 293 295 297 299 301 303 305
221 222 222 222 223 224 223 224 225 227 229 231 233 235 237 240 243 246 249 252 254 257 260 263 267 269 271 274 276 278 280 283 285 287 289 291 293 294 296 299 300 302 304 305
222 221 221 221 222 223 224 223 224 226 227 229 231 234 237 240 243 246 249 251 254 257 261 265 267 270 272 275 277 279 281 283 286 288 290 292 294 296 298 300 302 303 305 306
221 220 220 220 220 220 221 223 225 227 228 230 233 235 237 240 243 246 249 251 255 259 263 265 268 271 274 276 278 280 282 285 287 289 291 293 295 297 299 301 303 304 306 307
219 219 218 219 220 221 221 223 226 228 230 233 235 237 238 239 242 246 250 253 257 260 263 266 269 272 274 276 279 282 284 286 288 291 293 295 297 299 300 302 304 305 306 308
218 218 216 217 220 221 223 225 228 230 232 236 238 239 239 240 243 247 251 255 258 260 263 267 270 273 275 278 280 283 285 287 289 292 294 296 298 299 301 303 304 306 307 308
215 215 216 218 220 222 224 227 229 232 234 237 238 237 238 241 245 249 253 256 259 261 264 267 270 273 276 279 281 283 286 288 290 293 295 297 299 300 302 303 305 307 308 309
214 215 217 219 221 224 226 228 231 234 235 236 238 240 242 244 247 250 253 257 260 263 265 268 271 274 276 279 282 284 287 289 291 294 296 298 299 302 303 305 306 308 309 310
213 215 218 220 222 224 226 228 231 234 236 238 241 243 245 246 248 251 254 258 261 264 266 269 272 274 277 280 283 286 288 291 293 295 297 299 300 302 304 306 307 308 309 310
215 217 219 221 222 224 226 227 230 233 236 238 241 244 246 248 250 253 257 260 262 265 267 270 273 276 279 282 284 287 290 292 295 297 298 300 301 303 305 307 308 308 309 310
218 219 220 222 223 224 225 227 230 233 236 239 243 245 248 250 252 254 257 260 263 266 269 272 274 277 280 283 286 288 291 293 295 297 299 301 302 304 305 307 308 309 310 311
217 219 220 221 222 223 226 230 233 235 238 242 246 247 249 251 254 255 257 261 265 268 271 274 277 280 282 284 287 290 291 293 295 298 300 301 302 304 305 307 308 309 310 311
219 220 222 222 223 224 228 231 234 238 241 244 247 249 250 253 255 257 260 263 267 270 274 277 280 283 285 287 289 291 293 295 297 299 300 301 302 304 305 307 308 309 309 310
217 218 219 220 223 226 229 233 237 241 244 247 249 251 253 255 257 260 263 266 269 272 275 278 282 284 286 289 291 292 294 296 297 299 300 301 302 304 306 307 308 308 309 310
Height
5586 5593 5600 5606 5613 5619 5624 5633 5640 5650 5657 5665 5669 5672 5676 5679 5682 5685 5688 5690 5692 5693 5695 5696 5697 5697 5698 5698 5698 5697 5697 5696 5695 5693 5692 5690 5688 5686 5684 5682 5680 5678 5675 5672
5576 5582 5588 5594 5602 5609 5616 5624 5632 5639 5647 5656 5659 5662 5666 5670 5673 5676 5679 5681 5683 5685 5686 5687 5688 5689 5689 5689 5689 5689 5688 5687 5686 5685 5683 5682 5680 5678 5676 5674 5672 5669 5666 5664
5567 5573 5577 5583 5594 5602 5609 5616 5623 5629 5641 5646 5649 5653 5657 5661 5664 5667 5670 5672 5674 5676 5677 5679 5680 5680 5681 5681 5680 5680 5679 5679 5678 5676 5675 5673 5672 5670 5668 5665 5663 5661 5658 5655
5558 5563 5566 5582 5590 5594 5601 5608 5615 5621 5629 5635 5640 5643 5647 5650 5654 5657 5660 5663 5665 5667 5669 5670 5671 5672 5672 5672 5672 5672 5671 5670 5669 5668 5666 5665 5663 5661 5659 5657 5654 5652 5649 5645
5549 5554 5561 5573 5581 5587 5593 5599 5607 5613 5619 5624 5628 5631 5636 5641 5644 5648 5651 5654 5656 5658 5660 5661 5662 5663 5664 5664 5663 5663 5662 5662 5660 5659 5658 5656 5654 5652 5650 5648 5645 5642 5639 5636
5541 5547 5555 5569 5575 5579 5584 5590 5600 5603 5609 5613 5616 5621 5630 5633 5635 5639 5642 5645 5647 5649 5651 5653 5654 5654 5655 5655 5655 5655 5654 5653 5652 5651 5649 5648 5646 5644 5641 5639 5636 5633 5629 5626
5533 5539 5549 5560 5565 5569 5576 5587 5592 5595 5600 5604 5608 5615 5622 5623 5626 5629 5633 5636 5638 5641 5643 5644 5645 5646 5646 5647 5647 5646 5645 5644 5643 5642 5640 5639 5637 5634 5632 5629 5626 5623 5620 5616
5526 5533 5546 5553 5557 5563 5570 5577 5582 5587 5591 5596 5601 5605 5609 5613 5617 5620 5624 5627 5630 5632 5634 5635 5636 5637 5638 5638 5638 5637 5636 5635 5634 5633 5631 5629 5627 5625 5622 5620 5617 5613 5610 5606
5521 5532 5539 5543 5549 5555 5561 5567 5572 5577 5582 5586 5591 5595 5600 5604 5608 5612 5615 5618 5621 5623 5625 5626 5627 5628 5629 5629 5628 5628 5627 5626 5625 5624 5622 5620 5618 5616 5613 5610 5607 5603 5600 5596
5514 5523 5530 5535 5541 5547 5552 5558 5563 5569 5574 5578 5583 5587 5591 5596 5600 5604 5607 5609 5612 5614 5616 5617 5619 5619 5620 5620 5620 5619 5618 5617 5616 5614 5613 5611 5608 5606 5603 5600 5597 5593 5590 5585
5505 5514 5521 5527 5533 5539 5544 5550 5555 5561 5566 5570 5575 5579 5583 5587 5591 5595 5598 5601 5603 5605 5607 5608 5609 5610 5610 5611 5611 5610 5609 5608 5607 5605 5603 5601 5599 5596 5593 5590 5586 5583 5579 5575
5499 5508 5513 5520 5526 5531 5536 5542 5547 5553 5558 5563 5567 5571 5575 5579 5583 5586 5589 5592 5594 5596 5598 5599 5600 5601 5601 5602 5601 5601 5600 5599 5597 5596 5594 5591 5589 5586 5582 5579 5576 5572 5568 5563
5491 5497 5504 5511 5516 5522 5528 5534 5539 5545 5550 5555 5560 5564 5567 5571 5575 5578 5581 5583 5586 5587 5589 5590 5591 5592 5592 5592 5592 5591 5591 5589 5587 5586 5584 5581 5579 5576 5572 5569 5565 5560 5556 5551
5483 5489 5496 5503 5509 5515 5521 5526 5532 5537 5542 5547 5551 5555 5559 5563 5566 5570 5572 5575 5577 5579 5580 5582 5582 5583 5583 5583 5582 5582 5581 5579 5578 5576 5573 5571 5568 5565 5562 5558 5554 5549 5544 5539
5475 5481 5489 5495 5502 5508 5514 5519 5524 5530 5534 5539 5543 5547 5552 5555 5559 5561 5564 5566 5569 5570 5572 5573 5573 5574 5574 5573 5573 5572 5571 5569 5567 5565 5563 5560 5557 5554 5551 5547 5543 5538 5533 5528
5467 5473 5480 5487 5494 5500 5506 5512 5517 5522 5527 5531 5536 5540 5543 5547 5551 5553 5556 5558 5560 5561 5563 5564 5564 5564 5564 5564 5563 5562 5561 5559 5557 5555 5552 5550 5547 5543 5540 5536 5531 5527 5521 5516
5459 5466 5473 5480 5487 5493 5499 5504 5510 5514 5519 5524 5528 5532 5536 5539 5542 5545 5548 5550 5551 5553 5554 5555 5555 5555 5555 5554 5553 5552 5550 5549 5547 5544 5542 5539 5536 5532 5528 5524 5520 5515 5509 5503
5452 5459 5466 5473 5480 5486 5491 5496 5502 5507 5511 5516 5520 5524 5528 5531 5534 5537 5539 5541 5543 5544 5545 5545 5546 5545 5545 5544 5543 5542 5540 5538 5536 5534 5531 5528 5525 5521 5517 5513 5508 5503 5497 5491
5444 5451 5459 5466 5472 5478 5484 5489 5494 5499 5503 5508 5512 5516 5519 5523 5526 5528 5530 5532 5534 5535 5535 5536 5536 5536 5535 5534 5533 5532 5530 5528 5526 5523 5520 5517 5513 5509 5505 5501 5496 5490 5484 5478
5438 5445 5452 5459 5465 5472 5478 5483 5487 5491 5496 5500 5504 5508 5511 5514 5517 5520 5522 5523 5525 5525 5526 5526 5526 5526 5525 5524 5523 5521 5520 5517 5515 5512 5509 5506 5502 5498 5493 5488 5483 5477 5471 5465
5432 5439 5446 5453 5460 5465 5471 5475 5480 5484 5488 5492 5496 5499 5502 5505 5508 5511 5512 5514 5515 5516 5516 5517 5516 5516 5515 5514 5513 5511 5509 5507 5504 5501 5498 5494 5490 5486 5481 5476 5470 5464 5458 5451
5428 5435 5441 5447 5453 5458 5463 5468 5472 5476 5480 5484 5488 5491 5494 5496 5499 5501 5503 5505 5506 5506 5507 5507 5506 5505 5505 5503 5502 5500 5498 5496 5493 5490 5486 5482 5478 5473 5468 5463 5457 5451 5444 5438
5423 5429 5435 5441 5446 5451 5456 5461 5465 5469 5473 5476 5480 5483 5485 5488 5490 5492 5494 5495 5496 5496 5496 5496 5496 5495 5494 5493 5491 5489 5487 5484 5481 5478 5474 5470 5465 5460 5455 5449 5443 5437 5430 5423
5417 5422 5428 5433 5439 5444 5449 5454 5458 5462 5465 5468 5471 5474 5477 5479 5481 5482 5484 5485 5486 5486 5486 5486 5485 5484 5483 5482 5480 5478 5475 5472 5469 5465 5461 5456 5452 5446 5441 5435 5429 5423 5416 5409
5410 5416 5422 5427 5433 5438 5442 5447 5450 5454 5457 5460 5463 5465 5468 5470 5471 5473 5474 5475 5476 5476 5476 5475 5474 5473 5472 5470 5468 5466 5463 5460 5456 5452 5448 5443 5438 5433 5427 5421 5415 5409 5402 5396
5405 5410 5416 5421 5426 5431 5435 5439 5443 5446 5449 5452 5454 5456 5458 5460 5462 5463 5464 5465 5465 5465 5465 5464 5463 5462 5460 5458 5456 5453 5450 5447 5443 5438 5434 5429 5424 5419 5413 5407 5401 5395 5389 5382
5400 5405 5410 5415 5419 5424 5428 5432 5435 5438 5441 5444 5446 5448 5449 5451 5452 5454 5454 5455 5455 5455 5454 5453 5452 5450 5449 5446 5444 5441 5437 5433 5429 5424 5420 5415 5410 5405 5399 5393 5387 5381 5375 5368